Ogallala, NE

3:31 AM MST on January 24, 2017 (GMT -0700)
Searle

Weather History for KOGA - August, 2013

Change the Weather History Date:

Wednesday, August 28, 2013

  Actual Average Record
Temperature  
Mean Temperature 78 °F -  
Max Temperature 97 °F 86 °F 104 °F (1970)
Min Temperature 59 °F 54 °F 37 °F (1964)
Cooling Degree Days 13    
Growing Degree Days 28 (Base 50)    
Moisture  
Dew Point 52 °F    
Average Humidity 45    
Maximum Humidity 85    
Minimum Humidity 15    
Precipitation  
Precipitation 0.00 in - - ()
Sea Level Pressure  
Sea Level Pressure 30.03 in    
Wind  
Wind Speed 5 mph (SE)    
Max Wind Speed 15 mph    
Max Gust Speed 20 mph    
Visibility 10 miles    
Events      
Averages and records for this station are not official NWS values.
T = Trace of Precipitation, MM = Missing Value Source: NWS Daily Summary

Daily Weather History Graph

Daily Weather History Graph

Search for Another Location

Airport or City:

Trip Planner

Search our weather history database for the weather conditions in past years. The results will help you decide how hot, cold, wet, or windy it might be!

Date:

Astronomy

Aug. 28, 2013 Rise Set
Actual Time 6:09 AM MDT 7:25 PM MDT
Civil Twilight 5:41 AM MDT 7:54 PM MDT
Nautical Twilight 5:07 AM MDT 8:28 PM MDT
Astronomical Twilight 4:31 AM MDT 9:04 PM MDT
Moon No Moon Rise 2:06 PM MDT (8/28)
Length of Visible Light 14h 12m
Length of Day
13h 15m
Waning Gibbous, 47% of the Moon is Illuminated
Aug 28
Waning Gibbous
Sep 5
New
Sep 12
First Quarter
Sep 19
Full
Sep 26
Last Quarter

Hourly Weather History & Observations

Time (MDT) Temp. Heat Index Dew Point Humidity Pressure Visibility Wind Dir Wind Speed Gust Speed Precip Events Conditions
12:15 AM 75.6 °F - 52.9 °F 45% 30.00 in 10.0 mi SW 4.6 mph - N/A   Clear
12:35 AM 75.0 °F - 53.8 °F 47% 30.00 in 10.0 mi WSW 3.5 mph - N/A   Clear
12:55 AM 72.3 °F - 54.7 °F 54% 30.00 in 10.0 mi WSW 3.5 mph - N/A   Clear
1:15 AM 70.9 °F - 55.0 °F 57% 30.00 in 10.0 mi SW 5.8 mph - N/A   Clear
1:35 AM 70.0 °F - 54.9 °F 59% 30.00 in 10.0 mi SSW 4.6 mph - N/A   Clear
1:55 AM 68.0 °F - 55.8 °F 65% 30.00 in 10.0 mi Calm Calm - N/A   Clear
2:15 AM 65.1 °F - 57.2 °F 75% 30.00 in 10.0 mi WSW 4.6 mph - N/A   Clear
2:35 AM 65.3 °F - 56.5 °F 73% 30.00 in 10.0 mi SSW 3.5 mph - N/A   Clear
2:55 AM 63.7 °F - 55.9 °F 76% 30.00 in 10.0 mi West 3.5 mph - N/A   Clear
3:15 AM 63.5 °F - 55.6 °F 75% 30.00 in 10.0 mi East 4.6 mph - N/A   Clear
3:35 AM 64.6 °F - 55.6 °F 73% 30.01 in 10.0 mi East 3.5 mph - N/A   Clear
3:55 AM 65.3 °F - 56.1 °F 72% 30.01 in 10.0 mi ESE 5.8 mph - N/A   Clear
4:15 AM 63.9 °F - 55.9 °F 75% 30.01 in 10.0 mi Calm Calm - N/A   Clear
4:35 AM 63.0 °F - 55.6 °F 77% 30.01 in 10.0 mi Calm Calm - N/A   Clear
4:55 AM 62.8 °F - 54.9 °F 75% 30.00 in 10.0 mi Calm Calm - N/A   Clear
5:15 AM 59.9 °F - 54.7 °F 83% 30.01 in 10.0 mi NW 3.5 mph - N/A   Clear
5:35 AM 60.8 °F - 55.6 °F 83% 30.00 in 10.0 mi West 3.5 mph - N/A   Clear
5:55 AM 59.7 °F - 55.0 °F 84% 30.01 in 10.0 mi Calm Calm - N/A   Clear
6:15 AM 59.7 °F - 54.7 °F 83% 30.01 in 10.0 mi Calm Calm - N/A   Clear
6:35 AM 60.4 °F - 54.7 °F 81% 30.02 in 10.0 mi Calm Calm - N/A   Clear
6:55 AM 60.1 °F - 55.6 °F 85% 30.04 in 10.0 mi Calm Calm - N/A   Clear
7:15 AM 61.9 °F - 56.3 °F 82% 30.03 in 10.0 mi Calm Calm - N/A   Clear
7:35 AM 63.9 °F - 57.2 °F 79% 30.04 in 10.0 mi Calm Calm - N/A   Clear
7:55 AM 67.5 °F - 56.7 °F 68% 30.04 in 10.0 mi Calm Calm - N/A   Clear
8:15 AM 71.2 °F - 58.1 °F 63% 30.04 in 10.0 mi Calm Calm - N/A   Clear
8:35 AM 73.4 °F - 57.9 °F 58% 30.04 in 10.0 mi Calm Calm - N/A   Clear
8:55 AM 75.6 °F - 58.1 °F 55% 30.04 in 10.0 mi Calm Calm - N/A   Clear
9:15 AM 79.3 °F - 58.5 °F 49% 30.05 in 10.0 mi Calm Calm - N/A   Clear
9:35 AM 82.2 °F 82.0 °F 57.4 °F 43% 30.05 in 10.0 mi SSW 4.6 mph - N/A   Clear
9:55 AM 84.6 °F 83.5 °F 56.3 °F 38% 30.05 in 10.0 mi SE 3.5 mph - N/A   Clear
10:15 AM 86.0 °F 85.0 °F 57.7 °F 38% 30.05 in 10.0 mi ESE 3.5 mph - N/A   Clear
10:35 AM 89.2 °F 87.9 °F 57.4 °F 34% 30.04 in 10.0 mi East 4.6 mph - N/A   Clear
10:55 AM 93.4 °F - 51.3 °F 24% 30.04 in 10.0 mi South 9.2 mph 18.4 mph N/A   Clear
11:15 AM 94.8 °F - 47.8 °F 20% 30.04 in 10.0 mi SSE 9.2 mph - N/A   Clear
11:35 AM 95.7 °F - 46.6 °F 19% 30.04 in 10.0 mi South 10.4 mph - N/A   Clear
11:55 AM 95.9 °F - 47.3 °F 19% 30.04 in 10.0 mi South 11.5 mph 17.3 mph N/A   Clear
12:15 PM 96.1 °F - 46.4 °F 18% 30.04 in 10.0 mi SSE 12.7 mph 19.6 mph N/A   Clear
12:35 PM 97.0 °F - 48.2 °F 19% 30.03 in 10.0 mi South 12.7 mph 19.6 mph N/A   Clear
12:55 PM 95.9 °F - 48.6 °F 20% 30.03 in 10.0 mi South 12.7 mph 17.3 mph N/A   Clear
1:15 PM 96.3 °F - 46.9 °F 19% 30.04 in 10.0 mi SSE 15.0 mph 18.4 mph N/A   Clear
1:35 PM 95.0 °F - 46.8 °F 19% 30.04 in 10.0 mi South 6.9 mph - N/A   Clear
1:55 PM 97.7 °F - 45.9 °F 17% 30.03 in 10.0 mi South 9.2 mph - N/A   Clear
2:15 PM 97.2 °F - 42.6 °F 15% 30.03 in 10.0 mi SE 11.5 mph - N/A   Clear
2:35 PM 96.6 °F - 41.7 °F 15% 30.03 in 10.0 mi SSE 8.1 mph - N/A   Clear
2:55 PM 96.6 °F - 46.9 °F 18% 30.02 in 10.0 mi SSE 9.2 mph - N/A   Clear
3:15 PM 97.0 °F - 47.8 °F 19% 30.02 in 10.0 mi ESE 12.7 mph - N/A   Clear
3:35 PM 96.1 °F - 45.7 °F 18% 30.02 in 10.0 mi SSE 6.9 mph 17.3 mph N/A   Clear
3:55 PM 96.8 °F - 45.9 °F 17% 30.02 in 10.0 mi SSE 5.8 mph 9.2 mph N/A   Clear
4:15 PM 96.3 °F - 44.8 °F 17% 30.01 in 10.0 mi ESE 8.1 mph - N/A   Clear
4:35 PM 96.8 °F - 43.9 °F 16% 30.01 in 10.0 mi SE 6.9 mph - N/A   Clear
4:55 PM 97.0 °F - 41.9 °F 15% 30.01 in 10.0 mi ESE 9.2 mph - N/A   Clear
5:15 PM 96.1 °F - 42.4 °F 16% 30.01 in 10.0 mi ESE 9.2 mph - N/A   Clear
5:35 PM 95.4 °F - 41.9 °F 16% 30.01 in 10.0 mi ESE 9.2 mph - N/A   Clear
5:55 PM 94.6 °F - 41.9 °F 16% 30.00 in 10.0 mi ESE 6.9 mph - N/A   Clear
6:15 PM 93.2 °F - 45.0 °F 19% 30.01 in 10.0 mi SSE 6.9 mph - N/A   Clear
6:35 PM 91.6 °F - 50.2 °F 24% 30.01 in 10.0 mi SE 5.8 mph - N/A   Clear
6:55 PM 89.1 °F - 51.6 °F 28% 30.02 in 10.0 mi SSE 6.9 mph - N/A   Clear
7:15 PM 86.7 °F - 52.0 °F 30% 30.02 in 10.0 mi SSE 5.8 mph - N/A   Clear
7:35 PM 83.5 °F - 52.0 °F 34% 30.02 in 10.0 mi SSE 4.6 mph - N/A   Clear
7:55 PM 81.7 °F - 52.2 °F 36% 30.03 in 10.0 mi SE 3.5 mph - N/A   Clear
8:15 PM 79.3 °F - 53.6 °F 41% 30.04 in 10.0 mi East 4.6 mph - N/A   Clear
8:35 PM 77.9 °F - 54.3 °F 44% 30.04 in 10.0 mi Calm Calm - N/A   Clear
8:55 PM 78.1 °F - 55.2 °F 45% 30.04 in 10.0 mi ESE 5.8 mph - N/A   Clear
9:15 PM 79.2 °F - 54.7 °F 43% 30.05 in 10.0 mi East 6.9 mph - N/A   Clear
9:35 PM 76.6 °F - 55.9 °F 49% 30.05 in 10.0 mi East 5.8 mph - N/A   Clear
9:55 PM 76.3 °F - 55.9 °F 49% 30.05 in 10.0 mi East 4.6 mph - N/A   Clear
10:15 PM 78.1 °F - 55.8 °F 46% 30.05 in 10.0 mi East 5.8 mph - N/A   Clear
10:35 PM 75.6 °F - 56.1 °F 51% 30.06 in 10.0 mi East 3.5 mph - N/A   Clear
10:55 PM 75.4 °F - 56.3 °F 51% 30.05 in 10.0 mi East 5.8 mph - N/A   Clear
11:15 PM 74.5 °F - 56.3 °F 53% 30.06 in 10.0 mi East 5.8 mph - N/A   Clear
11:35 PM 73.8 °F - 56.7 °F 55% 30.05 in 10.0 mi ENE 3.5 mph - N/A   Clear
11:55 PM 74.1 °F - 56.8 °F 55% 30.05 in 10.0 mi NE 3.5 mph - N/A   Clear